Andover, NJ

6:02 AM EDT on August 18, 2017 (GMT -0400)
Andover

Weather History for K12N - August, 2014

Change the Weather History Date:

Thursday, August 28, 2014

  Actual Average (KFWN) Record (KFWN)
Temperature  
Mean Temperature 65 °F -  
Max Temperature 75 °F 81 °F 96 °F (1948)
Min Temperature 55 °F 57 °F 39 °F (1968)
Growing Degree Days 15 (Base 50)    
Moisture  
Dew Point 53 °F    
Average Humidity 62    
Maximum Humidity 83    
Minimum Humidity 41    
Precipitation  
Precipitation 0.00 in - - ()
Sea Level Pressure  
Sea Level Pressure 29.96 in    
Wind  
Wind Speed 6 mph (NNW)    
Max Wind Speed 10 mph    
Max Gust Speed 20 mph    
Averages and records for this station are not official NWS values.
T = Trace of Precipitation, MM = Missing Value Source: NWS Daily Summary

Daily Weather History Graph

Daily Weather History Graph

Search for Another Location

Airport or City:

Trip Planner

Search our weather history database for the weather conditions in past years. The results will help you decide how hot, cold, wet, or windy it might be!

Date:

Astronomy

Aug. 28, 2014 Rise Set
Actual Time 6:21 AM EDT 7:37 PM EDT
Civil Twilight 5:53 AM EDT 8:06 PM EDT
Nautical Twilight 5:18 AM EDT 8:40 PM EDT
Astronomical Twilight 4:42 AM EDT 9:16 PM EDT
Moon 9:13 AM EDT (8/28) 8:58 PM EDT (8/28)
Length of Visible Light 14h 13m
Length of Day
13h 16m
Waxing Crescent, 8% of the Moon is Illuminated
Aug 28
Waxing Crescent
Sep 2
First Quarter
Sep 8
Full
Sep 15
Last Quarter
Sep 24
New

Hourly Weather History & Observations

Time (EDT) Temp. Dew Point Humidity Pressure Visibility Wind Dir Wind Speed Gust Speed Precip Events Conditions
12:54 AM 73.9 °F 66.9 °F 79% 29.90 in - North 6.9 mph - N/A   Unknown
1:54 AM 72.0 °F 63.0 °F 73% 29.89 in - North 6.9 mph - N/A   Unknown
2:54 AM 69.1 °F 57.9 °F 68% 29.88 in - Calm Calm - N/A   Unknown
3:54 AM 66.0 °F 57.9 °F 75% 29.89 in - North 4.6 mph - N/A   Unknown
4:54 AM 64.9 °F 55.9 °F 73% 29.90 in - North 5.8 mph - N/A   Unknown
5:54 AM 63.0 °F 55.0 °F 75% 29.91 in - North 6.9 mph - N/A   Unknown
6:54 AM 62.1 °F 55.0 °F 78% 29.93 in - Variable 5.8 mph - N/A   Unknown
7:54 AM 62.1 °F 55.0 °F 78% 29.95 in - North 6.9 mph - N/A   Unknown
8:54 AM 66.0 °F 55.0 °F 68% 29.94 in - North 5.8 mph - N/A   Unknown
9:54 AM 66.9 °F 54.0 °F 63% 29.95 in - NNW 5.8 mph - N/A   Unknown
10:54 AM 70.0 °F 54.0 °F 57% 29.94 in - North 8.1 mph 17.3 mph N/A   Unknown
11:54 AM 71.1 °F 54.0 °F 55% 29.94 in - North 8.1 mph 17.3 mph N/A   Unknown
12:54 PM 72.0 °F 53.1 °F 51% 29.94 in - NNW 10.4 mph 19.6 mph N/A   Unknown
1:54 PM 71.1 °F 52.0 °F 51% 29.93 in - North 8.1 mph - N/A   Unknown
2:54 PM 75.0 °F 50.0 °F 41% 29.92 in - WNW 9.2 mph 17.3 mph N/A   Unknown
3:54 PM 73.0 °F 51.1 °F 46% 29.93 in - North 8.1 mph - N/A   Unknown
4:54 PM 75.0 °F 51.1 °F 43% 29.94 in - North 9.2 mph - N/A   Unknown
5:54 PM 73.0 °F 50.0 °F 44% 29.96 in - NW 8.1 mph 17.3 mph N/A   Unknown
6:54 PM 70.0 °F 50.0 °F 49% 29.98 in - Variable 6.9 mph 17.3 mph N/A   Unknown
7:54 PM 66.9 °F 48.9 °F 52% 30.02 in - North 6.9 mph - N/A   Unknown
8:54 PM 64.9 °F 46.9 °F 52% 30.05 in - North 6.9 mph 17.3 mph N/A   Unknown
9:54 PM 61.0 °F 46.9 °F 60% 30.07 in - Calm Calm - N/A   Unknown
10:54 PM 55.9 °F 48.9 °F 77% 30.08 in - NNW 3.5 mph - N/A   Unknown
11:54 PM 55.0 °F 50.0 °F 83% 30.09 in - Calm Calm - N/A   Unknown